Other Surface Observations
Issued by NWS Charleston, SC

Current Version | Previous Version | Text Only | Print | Product List | Glossary On
Versions: 1 2 3 4 5 6 7 8 9 10 11 12 13 14 15 16 17 18 19 20 21 22 23 24 25 26 27 28 29 30 31 32 33 34 35 36 37 38 39 40 41 42 43 44 45 46 47 48 49 50
000
SXUS52 KCHS 240627
OSOCHS

MARINE OBSERVATIONS
NATIONAL WEATHER SERVICE CHARLESTON SC
200 AM EDT FRI MAR 24 2017

...DOWNTOWN CHARLESTON AND HARBOR...

CITY           SKY/WX    TMP DP  RH WIND       PRES   REMARKS
WATERFRONT PRK   N/A     55  50  83 NE10      30.47F

...LAKE MOULTRIE...

CITY           SKY/WX    TMP DP  RH WIND       PRES   REMARKS
PINOPOLIS        N/A     48  43  81 E7        30.41F

...LAKE AND SUPPLEMENTAL COASTAL OBSERVATIONS...

STATION/POSITION TIME  TEMP    WIND        PRES    WAVE   SWELL
                       AIR SEA DIR/SP/G            HT/PER HT/PER/DIR
                 (UTC) (F)     (DEG/KT/KT) (MB)    (FT/S) (FT/S/D)
FORT PULASKI     0600   58 60   50/ 11/ 15 1031.3
SAPELO ISLAND    0600   59      40/  5     1030.0
WINYAH BAY       0545   54      70/  9     1033.0S
LAKE MURRAY      0620   49     110/  4/  7 1031.8S
ACE BASIN NERRS  0545   49      10/  1     1032.0S


...C-MAN AND BUOY OBSERVATIONS...

STATION/POSITION TIME  TEMP    WIND        PRES    WAVE   SWELL
                       AIR SEA DIR/SP/G            HT/PER HT/PER/DIR
                 (UTC) (F)     (DEG/KT/KT) (MB)    (FT/S) (FT/S/D)
BUOY 41004       0550   65 72  100/ 17/ 21 1030.6F   6/ 7   2/ 60/10
BUOY 41008       0550   64 61  110/ 12/ 14 1029.8F   5/ 7   3/ 80/ 7
FOLLY BEACH CMAN 0600   57      60/ 17/ 19 1031.9F
CAPERS NS BUOY   0608   57      60/ 16/ 21 1031.4F
FRIPP NS BUOY    0608   59 59   60/ 14/ 17 1030.9F
5E ST. MARYS GA  0600      63                N/A     6/ 7   2/ 90/11


STATION/POSITION TIME  TEMP    WIND        PRES    WAVE   SWELL
                       AIR SEA DIR/SP/G            HT/PER HT/PER/DIR
                 (UTC) (F)     (DEG/KT/KT) (MB)    (FT/S) (FT/S/D)
FRYING PAN BUOY  0610   61 66   60/ 14/ 17 1032.2
BUOY 41025       0550   54 71   50/  6/ 10 1035.1R   6/11   7/ 40/11
CAPE LOOKOUT NC  0600   44      20/ 12/ 14 1033.7F
BUOY 41002       0550   62 72   60/ 17/ 21 1032.0F   6/10   3/ 30/10
BUOY 41010       NOT AVBL
ST AUGUSTINE FL  0600   66 65   90/ 10/ 11 1029.4R

$$




USA.gov is the U.S. government's official web portal to all federal, state and local government web resources and services.